Weather History for Chanute, KS

Change the Weather History Date:

Tuesday, December 4, 2012

  Actual Average Record
Temperature  
Mean Temperature 48 °F 38 °F  
Max Temperature 62 °F 47 °F 73 °F (1916)
Min Temperature 34 °F 28 °F 8 °F (2006)
Degree Days  
Heating Degree Days 17 27  
Month to date heating degree days 38 107  
Since 1 July heating degree days 830 959  
Cooling Degree Days 0 0  
Month to date cooling degree days 0 0  
Year to date cooling degree days 2006 1532  
Moisture  
Dew Point 30 °F    
Average Humidity 47    
Maximum Humidity 70    
Minimum Humidity 23    
Precipitation  
Precipitation 0.00 in 0.07 in 1.85 in (1973)
Month to date precipitation T 0.28  
Year to date precipitation 31.62 40.60  
Sea Level Pressure  
Sea Level Pressure 30.24 in    
Wind  
Wind Speed 6 mph (North)    
Max Wind Speed 14 mph    
Max Gust Speed 15 mph    
Visibility 10 miles    
Events      
T = Trace of Precipitation, MM = Missing Value Source: NWS Daily Summary

Daily Weather History Graph

Daily Weather History Graph

Search for Another Location

Airport:

Trip Planner

Search our weather history database for the weather conditions in past years. The results will help you decide how hot, cold, wet, or windy it might be!

Date:

Astronomy

Dec. 04, 2012 Rise Set
Actual Time 7:21 AM CST 5:03 PM CST
Civil Twilight 6:52 AM CST 5:32 PM CST
Nautical Twilight 6:19 AM CST 6:04 PM CST
Astronomical Twilight 5:48 AM CST 6:36 PM CST
Moon 10:47 PM CST (12/4) 11:20 AM CST (12/4)
Length of Visible Light 10h 39m
Length of Day
9h 41m
Waning Gibbous, 69% of the Moon is Illuminated
Dec 4
Waning Gibbous
Dec 6
Last Quarter
Dec 13
New
Dec 19
First Quarter
Dec 28
Full

Hourly Weather History & Observations

Time (CST) Temp. Windchill Dew Point Humidity Pressure Visibility Wind Dir Wind Speed Gust Speed Precip Events Conditions
12:52 AM 54.0 °F - 39.0 °F 57% 30.06 in 10.0 mi North 9.2 mph - N/A   Mostly Cloudy
1:52 AM 51.1 °F - 37.0 °F 59% 30.09 in 10.0 mi North 9.2 mph - N/A   Clear
2:52 AM 48.9 °F - 37.0 °F 64% 30.10 in 10.0 mi North 8.1 mph - N/A   Clear
3:52 AM 48.0 °F - 37.0 °F 66% 30.12 in 10.0 mi North 8.1 mph - N/A   Clear
4:52 AM 46.9 °F - 35.1 °F 63% 30.14 in 10.0 mi North 6.9 mph - N/A   Clear
5:52 AM 45.0 °F 40.1 °F 33.1 °F 63% 30.16 in 10.0 mi North 9.2 mph - N/A   Clear
6:52 AM 42.1 °F 37.7 °F 30.9 °F 65% 30.20 in 10.0 mi North 6.9 mph - N/A   Clear
7:52 AM 41.0 °F 36.4 °F 30.9 °F 67% 30.23 in 10.0 mi North 6.9 mph - N/A   Clear
8:52 AM 44.1 °F 40.8 °F 30.9 °F 60% 30.26 in 10.0 mi North 5.8 mph - N/A   Clear
9:52 AM 50.0 °F - 30.9 °F 48% 30.29 in 10.0 mi North 8.1 mph - N/A   Clear
10:52 AM 55.9 °F - 28.9 °F 36% 30.28 in 10.0 mi NNE 9.2 mph 26.5 mph N/A   Clear
11:52 AM 60.1 °F - 27.0 °F 28% 30.27 in 10.0 mi North 8.1 mph - N/A   Clear
12:52 PM 61.0 °F - 25.0 °F 25% 30.25 in 10.0 mi NNE 8.1 mph - N/A   Clear
1:52 PM 61.0 °F - 24.1 °F 24% 30.25 in 10.0 mi North 10.4 mph - N/A   Clear
2:52 PM 62.1 °F - 24.1 °F 23% 30.25 in 10.0 mi North 6.9 mph - N/A   Clear
3:52 PM 61.0 °F - 25.0 °F 25% 30.26 in 10.0 mi North 9.2 mph - N/A   Clear
4:52 PM 57.2 °F - 24.8 °F 29% 30.27 in 10.0 mi Calm Calm - N/A   Clear
5:52 PM 42.1 °F 40.2 °F 28.0 °F 58% 30.29 in 10.0 mi NE 3.5 mph - N/A   Clear
6:52 PM 45.0 °F - 26.1 °F 48% 30.30 in 10.0 mi Calm Calm - N/A   Clear
7:52 PM 37.9 °F - 26.1 °F 62% 30.31 in 10.0 mi Calm Calm - N/A   Clear
8:52 PM 36.0 °F - 26.1 °F 67% 30.32 in 10.0 mi Calm Calm - N/A   Clear
9:52 PM 39.0 °F - 27.0 °F 62% 30.32 in 10.0 mi Calm Calm - N/A   Clear
10:52 PM 36.0 °F - 26.1 °F 67% 30.33 in 10.0 mi Calm Calm - N/A   Clear
11:52 PM 34.0 °F 28.0 °F 28.9 °F 82% 30.32 in 10.0 mi SE 6.9 mph - N/A   Clear